Weather in Dichnya

Russia / Kursk Oblast     51°39′33″N   35°43′40″E
temp.,
°C
wind,
m/s
gust,
m/s
humid.,
%
clouds,
%
prec.,
mm/h
press.,
hPa
HPBL,
m
25 february, thu
thu2500:00−7ssw369699 0.2 1032170
03:00−5sw3797100 0.4 1030244
06:00−4sw4797100 0.1 1028186
09:000wsw51096100 0.1 1026407
12:00+1wsw612100100 0.1 1024307
15:00+2w716100100 0.2 1023371
18:00+2w613100100 0.1 1022293
21:00+2w512100100 0.1 1022234
26 february, fri
fri2600:00+2wnw51099100 0.0 1022276
03:00+2w410100100 0.0 1022218
06:00+2w59100100 0.0 1020208
09:00+2w51199100 0.0 1019290
12:00+2wsw714100100 0.0 1017394
15:00+3w714100100 0.0 1016359
18:00+2w61299100 0.1 1014306
21:00+1w51398100 0.1 1014412
27 february, sat
sat2700:00+1w51297100 0.0 1012440
03:00+1w51196100 0.0 1011416
06:00+1w61197100 0.1 1010530
09:00+1wnw61197100 0.2 1009559
12:00+1w61199100 0.2 1008528
15:00+1wnw5109999 0.3 1008497
18:00+1wnw51098100 0.1 1008466
21:000nw51096100 0.3 1010536
28 february, sun
sun2800:000nnw5119596 0.2 1011637
03:00−1n5109398 0.4 1014665
06:00−3n5108698 0.1 1016860
09:00−4n698798 0.2 1018757
12:00−3n6987100 0.1 1019700
15:00−2n5885100 0.1 1020813
18:00−2nnw4894100 0.1 1021557
21:00−3n249795 0.2 1023120
1 march, mon
mon100:00−4n359493 0.1 1024136
03:00−4n249696 0.2 1026271
06:00−4n3692100 0.1 1027422
09:00−3n3582100 0.2 1029870
12:00−3n3581100 0.0 1031823
15:00−2nw348497 0.0 1031679
18:00−2wnw258696 0.0 1031181
21:00−4w349070 0.0 103286